Dosis diarias (en J/m2) de radiaci�n solar incidente en superficie.
Lugar de muestreo: Estaci�n de Fotobiolog�a Playa Uni�n (EFPU) en Playa Uni�n, Chubut, Argentina (-43.311263, -65.040969).
Datos aportados al Sistema Nacional de Datos del Mar.
Fecha,Dosis PAR,DosisUV-A,DosisUV-B
2004-01-01,11953102.2,1693463.4,46970.3
2004-01-02,11980423.5,1662126.7,45783.6
2004-01-03,13120552.8,1783635.5,48299.3
2004-01-04,12409318.0,1710693.4,46354.1
2004-01-05,7477654.1,1109850.1,30524.9
2004-01-06,12810154.7,1801546.2,49302.9
2004-01-07,13434821.3,1847757.8,50219.0
2004-01-08,11380131.2,1623601.4,43942.0
2004-01-09,11323645.9,1621653.1,44708.8
2004-01-10,12009860.3,1678643.2,45855.4
2004-01-11,12925226.2,1786829.3,49977.5
2004-01-12,11263933.9,1586210.2,43590.3
2004-01-13,12114752.1,1691215.1,46720.0
2004-01-14,12451305.9,1752001.3,48316.8
2004-01-15,13253632.1,1836310.8,50117.7
2004-01-16,9367332.8,1339322.1,37220.5
2004-01-17,8898287.0,1252358.7,33417.3
2004-01-18,10146819.9,1456588.8,41188.9
2004-01-19,11071800.9,1562842.6,43866.8
2004-01-20,11783355.4,1600257.4,43223.8
2004-01-21,12947800.4,1766788.4,47075.0
2004-01-22,10926132.6,1505909.0,40614.2
2004-01-23,12209846.2,1680448.5,45704.8
2004-01-24,9457159.3,1366810.4,38676.9
2004-01-25,12678861.0,1744344.5,46860.8
2004-01-26,12730869.5,1727583.6,46448.7
2004-01-27,8827187.0,1273784.6,34658.5
2004-01-28,10576700.2,1485012.6,40869.9
2004-01-29,12675085.2,1707902.2,46211.7
2004-01-30,12208343.7,1660930.8,44322.2
2004-01-31,12024510.2,1630748.0,44427.3
2004-02-01,10715304.2,1476892.2,41033.0
2004-02-02,2732489.7,446418.1,12296.9
2004-02-03,11855646.9,1602944.8,42556.2
2004-02-04,11875732.6,1600823.8,43271.0
2004-02-05,11780812.1,1584354.8,42925.1
2004-02-06,11669653.3,1568131.6,42071.6
2004-02-07,11228029.1,1506576.8,40656.3
2004-02-08,7956743.5,1128713.0,30942.0
2004-02-09,8865856.4,1229373.8,32612.2
2004-02-10,11056027.4,1482074.6,39807.8
2004-02-11,6283292.2,890107.1,25173.2
2004-02-12,10408711.9,1424504.9,37442.0
2004-02-13,11160538.4,1495231.1,39866.5
2004-02-14,8944443.3,1266134.2,35678.4
2004-02-15,10874056.0,1463942.3,39291.1
2004-02-16,1883804.4,315043.3,8485.8
2004-02-17,9860529.7,1334681.8,35126.3
2004-02-18,9475014.8,1289735.2,33654.0
2004-02-19,10648268.7,1411474.4,36948.9
2004-02-20,10438466.4,1392111.0,36944.1
2004-02-21,10405577.9,1378920.5,36434.9
2004-02-22,8124242.1,976402.4,23829.6
2004-02-23,9900639.1,1265031.6,32646.2
2004-02-24,10067535.9,1358389.5,36400.3
2004-02-25,8059326.9,1111534.6,30372.3
2004-02-26,4139686.5,643366.2,17789.8
2004-02-27,8839987.6,1178360.7,30748.2
2004-02-28,4032029.8,600752.7,15317.7
2004-02-29,7957085.1,1120985.9,28829.1
2004-03-01,8379477.1,1183806.0,30513.8
2004-03-02,8936716.5,1205599.1,30192.9
2004-03-03,9566090.8,1287175.1,33361.4
2004-03-04,8737262.8,1208921.8,32062.8
2004-03-06,9382102.1,1235715.5,30749.8
2004-03-07,9069384.0,1207847.8,30271.3
2004-03-08,8968119.6,1195347.2,30751.9
2004-03-09,8449360.5,1132112.5,28351.3
2004-03-10,8730395.3,1139863.3,27877.3
2004-03-11,7359505.0,986574.0,24174.1
2004-03-12,7407286.1,1000290.9,24556.2
2004-03-13,8316740.1,1093913.2,26243.1
2004-03-14,5249779.3,734147.4,18056.3
2004-03-15,8328643.5,1086760.9,25694.1
2004-03-16,7510258.2,1016893.6,24482.6
2004-03-17,8208348.8,1059887.9,24781.7
2004-03-18,8107962.8,1044816.4,24489.2
2004-03-19,7944866.7,1024394.7,23740.8
2004-03-20,7486179.9,980769.7,23117.1
2004-03-21,7219438.6,940945.0,22134.7
2004-03-22,7592519.3,977159.3,22859.1
2004-03-23,7185752.0,959222.6,21501.3
2004-03-24,6798033.0,881695.5,19985.5
2004-03-25,5774959.6,772809.5,17480.2
2004-03-26,6500021.1,845531.9,18644.3
2004-03-27,6028445.9,789969.5,17644.6
2004-03-28,3727831.5,508505.6,11347.5
2004-03-30,3064574.4,451966.1,9834.3
2004-03-31,2555016.4,399541.2,9637.0
2004-04-01,5240491.2,713547.5,15552.9
2004-04-02,2508535.3,362379.8,7446.5
2004-04-03,6080079.5,796112.6,17284.5
2004-04-04,3652935.3,517357.5,11879.8
2004-04-06,5877514.4,761515.4,15307.3
2004-04-07,5475863.4,717380.6,14507.0
2004-04-08,5654930.8,730480.3,14573.6
2004-04-09,4796850.7,642349.7,12993.5
2004-04-10,5333248.6,684370.6,13597.3
2004-04-11,4649802.2,616047.7,12198.7
2004-04-12,5202988.6,673956.5,12308.7
2004-04-13,4855815.0,669947.8,12458.0
2004-04-14,5271898.1,669667.5,12538.2
2004-04-15,5135403.8,656298.0,12517.0
2004-04-16,1835510.0,274123.5,5152.1
2004-04-17,4749210.8,605285.4,11356.3
2004-04-18,2972027.4,414784.4,7398.5
2004-04-19,4764581.2,614088.5,10948.3
2004-04-20,3317379.3,463924.3,8351.4
2004-04-21,1131801.5,201681.0,3685.1
2004-04-22,2087681.7,326093.6,6134.9
2004-04-23,2776117.2,417732.5,7366.5
2004-04-24,4473870.5,545959.5,9585.7
2004-04-25,4371844.4,533366.6,9397.0
2004-04-26,3857259.1,480624.4,8264.2
2004-04-27,1946744.0,283641.5,4813.2
2004-04-28,3883730.6,480221.7,7872.6
2004-04-29,3815575.5,455840.3,7372.1
2004-04-30,3712107.4,467376.8,7251.7
2004-05-01,971978.5,152995.7,2444.0
2004-05-02,3074559.9,397995.8,6360.8
2004-05-03,3103807.2,394555.8,6137.6
2004-05-04,3922049.4,462160.3,7088.1
2004-05-05,3090405.5,394835.8,6250.4
2004-05-06,3344263.5,413458.1,6655.3
2004-05-07,3002959.6,384744.0,5983.2
2004-05-08,2920380.2,381024.1,5849.4
2004-05-09,3442604.5,407696.7,5689.8
2004-05-10,3435122.5,404217.9,5759.6
2004-05-11,3221011.3,391311.5,5633.3
2004-05-12,3262625.3,390489.6,5264.3
2004-05-13,3363433.0,381234.2,5351.7
2004-05-14,2527823.5,313104.0,4468.0
2004-05-15,865359.4,134780.5,1880.8
2004-05-16,2057882.6,276839.6,3776.5
2004-05-17,1683715.0,230501.0,3125.2
2004-05-18,1450699.6,198982.5,2648.9
2004-05-20,1593442.4,236191.9,3187.3
2004-05-21,2861413.1,324418.5,3991.8
2004-05-22,2927236.3,328661.5,4119.9
2004-05-23,2840487.9,323236.5,4129.3
2004-05-24,2883808.7,323512.2,4120.6
2004-05-25,2172782.9,273004.8,3497.4
2004-05-26,2768974.5,311138.3,3666.1
2004-05-27,2889926.1,336339.2,3750.2
2004-05-28,2496651.1,280486.9,3429.2
2004-05-29,2353709.0,267458.0,3180.0
2004-05-30,1984568.3,253127.6,3139.6
2004-05-31,1329706.9,176904.0,2223.5
2004-06-01,2170557.1,260227.4,3042.9
2004-06-02,2239612.0,261297.1,3095.4
2004-06-03,985125.6,146935.7,1690.3
2004-06-04,746899.5,108361.6,1277.8
2004-06-05,2616570.0,273085.8,2926.5
2004-06-06,2272909.4,247514.8,2732.0
2004-06-07,1380976.2,186739.7,2200.0
2004-06-08,2137338.3,247798.2,2630.6
2004-06-09,491924.1,77981.6,787.7
2004-06-10,1984852.0,250318.8,2637.8
2004-06-11,2477993.3,275633.6,2967.0
2004-06-12,2335523.6,266361.8,2893.1
2004-06-13,974758.2,137627.5,1454.5
2004-06-14,1752969.7,221807.6,2447.5
2004-06-15,841043.1,127076.0,1353.1
2004-06-16,2372383.6,267541.1,2832.2
2004-06-17,2392544.3,268398.3,2884.0
2004-06-18,984693.5,144895.8,1712.6
2004-06-19,913469.6,135363.2,1497.8
2004-06-20,2061011.1,242742.4,2543.4
2004-06-21,1766423.9,217061.7,2287.3
2004-06-22,1275594.8,171852.5,1748.2
2004-06-23,2014138.1,235942.2,2673.9
2004-06-24,2295208.9,260987.3,2896.4
2004-06-25,2310142.6,262487.7,2880.0
2004-06-26,854822.8,121878.0,1399.4
2004-06-27,1959789.6,240437.5,2671.3
2004-06-28,1830706.3,226263.8,2620.7
2004-06-29,2411622.1,282879.5,2786.6
2004-06-30,1942138.7,234589.1,2616.5
2004-07-01,938157.1,139871.0,1532.3
2004-07-02,2336497.7,269372.9,2797.2
2004-07-03,2449278.7,278121.1,3028.4
2004-07-04,1007614.1,147093.6,1650.6
2004-07-05,1441275.2,187427.6,2247.3
2004-07-06,1511181.6,210903.4,2397.4
2004-07-07,2525579.8,284359.7,3174.9
2004-07-08,1207424.4,161587.0,1700.1
2004-07-09,2516348.7,281688.7,2996.2
2004-07-10,2646950.5,296589.0,3462.7
2004-07-11,2046568.1,251449.9,3077.7
2004-07-12,1078390.1,163547.8,2083.9
2004-07-13,1274449.1,187274.8,2149.3
2004-07-14,1291953.8,181924.6,1994.2
2004-07-15,2472354.8,289944.7,3388.8
2004-07-16,2852144.5,317081.7,3641.5
2004-07-17,2193778.0,268011.8,3104.8
2004-07-18,2821286.4,310035.5,3798.6
2004-07-19,1432186.0,191938.2,2525.4
2004-07-20,1644341.1,228179.5,2909.4
2004-07-21,791740.6,116841.8,1494.4
2004-07-22,2802701.1,322239.2,3799.9
2004-07-23,1724383.5,233893.0,2885.1
2004-07-24,2359552.5,287294.9,3509.6
2004-07-25,1250373.6,174083.3,2110.2
2004-07-26,1975927.9,266472.9,3687.0
2004-07-27,324759.6,55359.3,729.9
2004-07-28,3262465.4,374786.6,5000.1
2004-07-29,3230818.6,374981.3,5054.7
2004-07-30,2704730.8,326202.5,4581.7
2004-07-31,2445523.1,316397.3,4536.3
2004-08-01,2548675.2,319366.3,4514.3
2004-08-02,1448704.8,195275.9,2899.5
2004-08-03,1021393.5,152351.9,2171.3
2004-08-04,2367468.4,308272.2,4332.9
2004-08-05,1743704.5,243159.4,3362.5
2004-08-06,3322685.1,399018.7,5553.2
2004-08-07,3524387.2,409013.5,6021.7
2004-08-08,3538733.9,412964.5,5961.3
2004-08-09,3689932.9,430619.3,6455.8
2004-08-10,2605252.5,295527.7,3818.3
2004-08-11,2887523.3,347238.1,5472.0
2004-08-12,3455701.2,413566.4,6509.4
2004-08-13,1689197.1,232068.6,3766.2
2004-08-14,4008340.6,461759.4,7227.9
2004-08-15,3875594.2,453971.0,6931.3
2004-08-16,4191412.1,481076.2,7456.1
2004-08-17,4278335.6,499934.3,7435.1
2004-08-18,4432167.0,501608.5,7896.7
2004-08-19,3781073.3,449165.8,7286.1
2004-08-20,4048384.2,477928.8,7718.2
2004-08-21,3685217.8,457274.8,7474.0
2004-08-22,4309872.5,501364.0,8234.8
2004-08-23,2043420.1,268118.6,4699.9
2004-08-24,4652733.6,531713.8,8936.9
2004-08-25,4740633.7,544927.4,9371.8
2004-08-26,1719981.6,243618.9,4581.1
2004-08-27,4993900.1,595532.2,10719.4
2004-08-28,3177865.2,414540.5,7583.3
2004-08-29,4696418.8,579470.4,11016.0
2004-08-30,3368907.9,449349.1,9010.1
2004-08-31,4358287.2,538509.8,9866.6
2004-09-01,5289869.6,632148.9,7813.9
2004-09-02,5220359.5,624572.6,7735.9
2004-09-03,2135137.6,297147.8,4044.2
2004-09-04,3348377.4,457637.2,5706.2
2004-09-06,4895906.4,624386.4,7583.1
2004-09-07,6056258.2,714307.1,9109.8
2004-09-08,6008074.7,722501.6,10755.8
2004-09-09,6126598.9,729362.1,9853.3
2004-09-10,6130082.7,731072.3,10350.7
2004-09-11,5243860.9,650082.4,9552.7
2004-09-12,1380150.6,204058.2,3128.8
2004-09-13,3294492.8,451269.3,6659.1
2004-09-14,5142004.0,667770.6,9523.1
2004-09-15,6554676.9,795463.0,11378.0
2004-09-16,5717190.7,787574.2,12139.0
2004-09-18,6808357.9,910304.6,13858.0
2004-09-19,7534899.7,989695.4,15343.8
2004-09-20,7465047.8,987187.0,15438.6
2004-09-21,6939515.1,942141.3,15046.9
2004-09-22,6956426.0,944024.9,15002.6
2004-09-23,2105476.1,341263.9,6137.4
2004-09-24,7353280.4,996372.3,16649.4
2004-09-25,3937135.5,593499.5,10169.1
2004-09-26,6869725.8,969582.9,17977.6
2004-09-27,2344755.7,364616.4,5685.3
2004-09-28,6445124.4,912839.6,15280.6
2004-09-29,7070709.5,967689.3,16789.0
2004-09-30,5670668.3,816895.8,14155.5
2004-10-01,8280559.7,1119106.4,27042.9
2004-10-02,6104961.5,863272.6,20669.1
2004-10-03,8317409.9,1112214.0,26238.3
2004-10-04,8383014.8,1117476.3,26146.0
2004-10-05,5670448.2,824797.7,20220.2
2004-10-06,3684333.1,513921.3,12150.7
2004-10-07,8642577.4,1166062.6,27899.2
2004-10-08,5955038.3,850887.2,20702.9
2004-10-11,4259693.4,673421.2,17599.8
2004-10-12,4163584.4,648881.5,16580.9
2004-10-13,9358625.0,1280655.4,33842.2
2004-10-14,6848771.0,976722.8,25169.8
2004-10-15,8663402.1,1200996.9,30527.2
2004-10-16,8596450.9,1204233.4,32515.3
2004-10-17,4858898.1,715645.9,17909.2
2004-10-18,7967494.0,1108564.4,27089.3
2004-10-19,9684707.0,1299281.9,32195.7
2004-10-20,9441337.9,1275769.8,31944.8
2004-10-21,4811118.2,717043.7,18957.6
2004-10-22,9907323.1,1358087.6,32287.7
2004-10-23,7701997.6,1108192.5,27103.2
2004-10-24,8771004.0,1233348.0,30626.7
2004-10-25,4101832.1,665549.1,15574.1
2004-10-26,10377270.5,1419653.9,34578.9
2004-10-27,7697723.6,1092669.0,27429.2
2004-10-28,7381772.0,1035593.9,25022.2
2004-10-29,8300375.2,1182770.3,29840.1
2004-10-30,8817325.8,1254007.3,32296.0
2004-10-31,8050347.4,1140568.8,28945.9
2004-11-01,8101364.0,1141144.6,29250.8
2004-11-02,10063277.0,1396905.4,35481.4
2004-11-03,10396636.1,1452951.6,36548.1
2004-11-04,5043990.4,757898.5,19725.4
2004-11-05,9997519.4,1411813.7,38580.6
2004-11-06,10392140.7,1457822.1,39400.1
2004-11-07,9821501.7,1365599.7,36009.1
2004-11-08,8732402.2,1249115.5,33279.7
2004-11-09,11295805.6,1542637.8,40084.4
2004-11-10,11074197.4,1517731.4,39416.6
2004-11-11,9759353.2,1366235.1,35845.7
2004-11-12,6761528.4,1030184.5,27087.6
2004-11-13,3796581.0,600338.1,15698.1
2004-11-14,8942306.8,1289366.1,33654.7
2004-11-15,10081596.9,1440488.1,38283.4
2004-11-16,6699488.3,1008602.6,26032.4
2004-11-17,8269293.8,1242611.9,34596.8
2004-11-18,11592607.8,1675554.6,46570.4
2004-11-19,8809981.7,1331824.4,37628.9
2004-11-20,11328437.0,1629060.2,44512.3
2004-11-21,8192178.1,1193307.8,31163.9
2004-11-22,11304253.4,1629416.1,43179.3
2004-11-23,12204463.7,1698471.6,44608.3
2004-11-24,12110427.1,1697822.8,46609.9
2004-11-25,13004424.8,1835616.4,51146.3
2004-11-26,12780750.8,1821805.0,50529.3
2004-11-27,11390285.4,1653217.6,47207.9
2004-11-28,9874790.7,1461541.0,41042.9
2004-11-29,12365884.4,1743477.2,47158.3
2004-11-30,8259284.3,1258606.7,36911.1
2004-12-01,5307848.9,833798.9,24513.8
2004-12-02,12590897.4,1765341.0,51916.6
2004-12-03,12788886.5,1795386.4,52657.9
2004-12-05,11937468.1,1733684.8,55091.8
2004-12-06,11769287.7,1682622.7,51067.8
2004-12-07,7643583.7,1165922.2,35293.0
2004-12-08,13151972.4,1827954.1,54263.2
2004-12-09,12718842.7,1794140.3,55892.2
2004-12-10,7587437.7,1130749.1,33990.8
2004-12-11,9994364.5,1413958.0,41191.4
2004-12-12,13030919.2,1800513.1,52852.0
2004-12-13,12185818.3,1714503.4,51092.5
2004-12-14,9313886.0,1356894.7,41326.3
2004-12-15,12615234.1,1750581.5,51953.5
2004-12-16,12723763.3,1757613.1,51128.1
2004-12-17,8184488.0,1205338.0,35516.8
2004-12-18,8015705.8,1183260.8,36175.7
2004-12-20,11901407.1,1693157.4,51072.5
2004-12-21,10597716.6,1504841.8,45184.2
2004-12-22,11987052.2,1676052.0,49649.3
2004-12-23,10015474.9,1435001.1,43747.9
2004-12-24,7143816.2,1045329.2,30456.9
2004-12-25,12688631.6,1715298.0,49893.7
2004-12-26,11771300.4,1621319.6,48132.3
2004-12-27,6294750.1,891515.8,26748.2
2004-12-28,11684104.2,1591156.1,46846.2
2004-12-29,8619046.6,1218817.9,37109.8
2004-12-30,9283393.3,1246913.3,35819.0
2004-12-31,10758522.2,1463650.3,44830.7
